GW5727 Weather Reports


time (UTC)temp
C
wind
direction
speed
KPH
gust
KPH
rain 1hr
cm
rain 24hr
cm
rain mn
cm
humidity
%
barometer
mb
20260503190528 15 280 4.8 4.8 0.00 0.00 0.00 32 1017.0
20260503190025 15 233 3.2 4.8 0.00 0.00 0.00 31 1017.4
20260503185521 15 261 3.2 4.8 0.00 0.00 0.00 30 1017.4
20260503185020 15 306 12.9 14.5 0.00 0.00 0.00 30 1017.4
20260503184517 15 325 8.0 9.7 0.00 0.00 0.00 34 1017.5
20260503184013 14 306 3.2 3.2 0.00 0.00 0.00 33 1017.6
20260503183510 14 302 3.2 3.2 0.00 0.00 0.00 35 1017.6
20260503183007 14 24 8.0 11.3 0.00 0.00 0.00 33 1017.5
20260503182506 13 269 4.8 4.8 0.00 0.00 0.00 32 1017.7
20260503182004 13 42 4.8 4.8 0.00 0.00 0.00 36 1017.6
20260503181500 15 72 3.2 3.2 0.00 0.00 0.00 35 1017.8
20260503180956 14 141 4.8 4.8 0.00 0.00 0.00 36 1017.6
20260503180454 13 321 4.8 8.0 0.00 0.00 0.00 37 1017.6
20260503175951 15 182 3.2 4.8 0.00 0.00 0.00 34 1017.7
20260503175449 13 260 0.0 1.6 0.00 0.00 0.00 42 1017.7
20260503174944 13 189 1.6 1.6 0.00 0.00 0.00 37 1017.9
20260503174443 14 220 6.4 9.7 0.00 0.00 0.00 34 1017.9
20260503173944 13 232 3.2 3.2 0.00 0.00 0.00 38 1018.0
20260503173440 13 247 3.2 4.8 0.00 0.00 0.00 38 1017.9
20260503172937 13 273 3.2 3.2 0.00 0.00 0.00 34 1018.0
20260503172434 13 263 3.2 4.8 0.00 0.00 0.00 34 1018.2
20260503171930 13 266 1.6 1.6 0.00 0.00 0.00 38 1018.2
20260503171427 13 201 3.2 4.8 0.00 0.00 0.00 39 1018.2
20260503170925 13 250 4.8 8.0 0.00 0.00 0.00 37 1018.0
20260503170421 13 279 3.2 3.2 0.00 0.00 0.00 40 1018.3
20260503150813 10 188 6.4 9.7 0.00 0.00 0.00 45 1019.4
20260503150309 10 310 4.8 8.0 0.00 0.00 0.00 50 1019.5
20260503140234 10 259 3.2 4.8 0.00 0.00 0.00 52 1019.3
20260503131203 8 118 1.6 3.2 0.00 0.00 0.00 52 1019.3
20260503130701 8 144 4.8 4.8 0.00 0.00 0.00 54 1019.2
20260503130158 7 251 1.6 1.6 0.00 0.00 0.00 53 1019.3
20260503120123 6 269 3.2 4.8 0.00 0.00 0.00 58 1019.0
20260503110551 1 260 0.0 0.0 0.00 0.00 0.00 81 1018.6
20260503090438 3 291 0.0 1.6 0.00 0.00 0.00 79 1017.0
20260503081404 3 267 0.0 1.6 0.00 0.00 0.00 77 1016.9
20260503080901 3 235 1.6 1.6 0.00 0.00 0.00 81 1016.9
20260503080358 3 276 0.0 1.6 0.00 0.00 0.00 81 1016.7
20260503072834 2 261 0.0 0.0 0.00 0.00 0.00 85 1016.4
20260503072331 2 256 0.0 0.0 0.00 0.00 0.00 85 1016.5
20260503071827 1 259 0.0 0.0 0.00 0.00 0.00 86 1016.5
20260503071325 2 277 1.6 3.2 0.00 0.00 0.00 86 1016.5
20260503070821 2 266 0.0 0.0 0.00 0.00 0.00 85 1016.5
20260503070319 2 264 0.0 0.0 0.00 0.00 0.00 85 1016.4
20260503060250 3 287 0.0 0.0 0.00 0.00 0.00 77 1016.1
20260503054737 4 293 1.6 3.2 0.00 0.00 0.00 74 1016.1
20260503054234 4 276 0.0 1.6 0.00 0.00 0.00 74 1016.1
20260503053732 4 283 0.0 1.6 0.00 0.00 0.00 72 1015.9
20260503053231 4 285 0.0 1.6 0.00 0.00 0.00 75 1016.2
20260503052726 4 276 0.0 0.0 0.00 0.00 0.00 76 1016.1
20260503052223 4 304 1.6 1.6 0.00 0.00 0.00 74 1016.2
20260503051718 4 261 0.0 0.0 0.00 0.00 0.00 75 1016.2
20260503051216 4 307 1.6 1.6 0.00 0.00 0.00 73 1016.4
20260503050712 5 283 0.0 1.6 0.00 0.00 0.00 73 1016.2
20260503050209 5 273 1.6 1.6 0.00 0.00 0.00 73 1016.2
20260503045707 5 355 6.4 8.0 0.00 0.00 0.00 72 1016.2
20260503045204 5 325 1.6 3.2 0.00 0.00 0.00 73 1016.4
20260503044700 5 294 3.2 3.2 0.00 0.00 0.00 73 1016.4
20260503044158 5 281 1.6 1.6 0.00 0.00 0.00 74 1016.4
20260503043654 5 274 0.0 0.0 0.00 0.00 0.00 74 1016.4
20260503043152 5 277 1.6 3.2 0.00 0.00 0.00 72 1016.2
20260503042647 5 336 1.6 1.6 0.00 0.00 0.00 73 1016.2
20260503042144 5 56 3.2 3.2 0.00 0.00 0.00 74 1016.5
20260503041640 5 238 1.6 1.6 0.00 0.00 0.00 76 1016.5
20260503041138 5 269 0.0 0.0 0.00 0.00 0.00 75 1016.4
20260503040636 5 1 3.2 4.8 0.00 0.00 0.00 75 1016.6
20260503040133 5 302 3.2 3.2 0.00 0.00 0.00 74 1016.4
20260503035629 5 265 0.0 0.0 0.00 0.00 0.00 75 1016.4
20260503035127 5 265 0.0 0.0 0.00 0.00 0.00 74 1016.2
20260503034624 5 301 1.6 1.6 0.00 0.00 0.00 75 1016.4
20260503034121 5 255 0.0 1.6 0.00 0.00 0.00 74 1016.1
20260503033618 5 299 3.2 3.2 0.00 0.00 0.00 74 1016.2
20260503033116 5 270 0.0 0.0 0.00 0.00 0.00 72 1016.4
20260503032614 5 258 0.0 0.0 0.00 0.00 0.00 72 1016.1
20260503032112 5 292 0.0 1.6 0.00 0.00 0.00 70 1016.2
20260503031610 6 273 1.6 1.6 0.00 0.00 0.00 71 1016.1
20260503031107 6 263 0.0 0.0 0.00 0.00 0.00 71 1016.1
20260503030603 5 239 0.0 1.6 0.00 0.00 0.00 71 1016.4
20260503030100 5 306 1.6 1.6 0.00 0.00 0.00 70 1016.4
20260503025556 5 249 1.6 3.2 0.00 0.00 0.00 69 1016.2
20260503025054 5 278 3.2 4.8 0.00 0.00 0.00 70 1016.4
20260503024550 5 265 0.0 0.0 0.00 0.00 0.00 70 1016.4
20260503024048 5 217 0.0 0.0 0.00 0.00 0.00 69 1016.1
20260503023544 5 277 1.6 1.6 0.00 0.00 0.00 69 1016.2
20260503023042 5 274 1.6 1.6 0.00 0.00 0.00 68 1016.2
20260503022538 5 280 1.6 1.6 0.00 0.00 0.00 66 1016.4
20260503022032 6 243 0.0 0.0 0.00 0.00 0.00 66 1016.2
20260503021530 6 274 1.6 1.6 0.00 0.00 0.00 64 1016.5
20260503021026 6 10 3.2 4.8 0.00 0.00 0.00 64 1016.1
20260503020524 6 269 1.6 1.6 0.00 0.00 0.00 62 1016.0
20260503020021 6 270 0.0 1.6 0.00 0.00 0.00 63 1015.9
20260503015517 6 303 3.2 4.8 0.00 0.00 0.00 61 1016.1
20260503015014 6 268 0.0 0.0 0.00 0.00 0.00 64 1015.9
20260503014510 6 265 0.0 0.0 0.00 0.00 0.00 61 1015.9
20260503014009 7 279 1.6 1.6 0.00 0.00 0.00 58 1015.7
20260503013505 7 211 1.6 1.6 0.00 0.00 0.00 60 1015.6
20260503013003 7 220 1.6 1.6 0.00 0.00 0.00 57 1015.6
20260503012501 7 298 1.6 3.2 0.00 0.00 0.00 57 1015.7
20260503011956 7 268 0.0 0.0 0.00 0.00 0.00 58 1015.6
20260503011453 7 300 1.6 1.6 0.00 0.00 0.00 57 1015.3
20260503010950 7 260 0.0 0.0 0.00 0.00 0.00 58 1015.3
20260503010447 7 275 4.8 4.8 0.00 0.00 0.00 55 1015.4
20260503005944 7 263 0.0 1.6 0.00 0.00 0.00 55 1015.2
20260503005441 7 268 1.6 1.6 0.00 0.00 0.00 55 1015.0
20260503004938 7 221 1.6 1.6 0.00 0.00 0.00 55 1015.1
20260503004435 7 297 1.6 3.2 0.00 0.00 0.00 55 1014.8
20260503003932 7 258 0.0 1.6 0.00 0.00 0.00 53 1014.9
20260503003429 8 271 0.0 1.6 0.00 0.00 0.00 53 1014.8
20260503002926 8 274 1.6 3.2 0.00 0.00 0.00 52 1014.9
20260503002423 8 276 1.6 1.6 0.00 0.00 0.00 54 1014.6
20260503001919 8 285 0.0 1.6 0.00 0.00 0.00 52 1014.8
20260503001416 8 272 1.6 1.6 0.00 0.00 0.00 50 1014.8
20260503000914 8 298 1.6 1.6 0.00 0.00 0.00 49 1014.3
20260503000411 8 298 1.6 1.6 0.00 0.00 0.00 48 1014.5
20260502235908 8 271 1.6 1.6 0.00 0.00 0.00 50 1014.5
20260502235405 8 230 3.2 4.8 0.00 0.00 0.00 49 1014.4
20260502234902 8 235 1.6 3.2 0.00 0.00 0.00 50 1014.5
20260502234358 8 239 1.6 3.2 0.00 0.00 0.00 47 1014.5
20260502233855 8 182 3.2 4.8 0.00 0.00 0.00 47 1014.3
20260502233351 8 214 1.6 3.2 0.00 0.00 0.00 48 1014.0
20260502232848 8 287 1.6 3.2 0.00 0.00 0.00 48 1014.3
20260502232345 8 276 1.6 1.6 0.00 0.00 0.00 48 1014.2
20260502231841 9 298 1.6 3.2 0.00 0.00 0.00 47 1013.7
20260502231339 9 279 1.6 3.2 0.00 0.00 0.00 46 1013.9
20260502230837 9 286 4.8 9.7 0.00 0.00 0.00 45 1013.9
20260502230335 9 274 3.2 3.2 0.00 0.00 0.00 45 1014.0
20260502225832 9 283 1.6 3.2 0.00 0.00 0.00 46 1014.0
20260502225328 9 296 1.6 3.2 0.00 0.00 0.00 48 1013.9
20260502224825 9 282 4.8 8.0 0.00 0.00 0.00 46 1013.9
20260502224321 9 311 3.2 4.8 0.00 0.00 0.00 45 1013.8
20260502223819 9 225 1.6 3.2 0.00 0.00 0.00 47 1013.8
20260502223317 10 179 0.0 1.6 0.00 0.00 0.00 45 1014.0
20260502222814 10 320 1.6 3.2 0.00 0.00 0.00 43 1013.6
20260502222311 11 174 4.8 4.8 0.00 0.00 0.00 42 1013.9
20260502221807 11 353 8.0 12.9 0.00 0.00 0.00 41 1013.9
20260502221303 12 238 1.6 1.6 0.00 0.00 0.00 42 1013.7
20260502220801 12 241 1.6 1.6 0.00 0.00 0.00 41 1013.7
20260502220256 12 297 3.2 3.2 0.00 0.00 0.00 43 1013.8
20260502215753 12 161 1.6 1.6 0.00 0.00 0.00 42 1013.6
20260502215251 12 278 3.2 3.2 0.00 0.00 0.00 44 1013.7
20260502214748 11 298 3.2 3.2 0.00 0.00 0.00 43 1013.6
20260502214244 12 269 4.8 4.8 0.00 0.00 0.00 42 1013.7
20260502213742 12 180 4.8 8.0 0.00 0.00 0.00 42 1013.6
20260502213239 13 264 1.6 1.6 0.00 0.00 0.00 40 1013.7
20260502212738 12 245 4.8 11.3 0.00 0.00 0.00 40 1013.9
20260502212236 13 258 1.6 3.2 0.00 0.00 0.00 40 1013.7
20260502211731 12 226 1.6 3.2 0.00 0.00 0.00 40 1013.4
20260502211228 12 231 3.2 3.2 0.00 0.00 0.00 42 1013.7
20260502210725 12 271 3.2 3.2 0.00 0.00 0.00 43 1013.6
20260502210223 12 255 1.6 1.6 0.00 0.00 0.00 42 1013.5
20260502205720 12 275 3.2 4.8 0.00 0.00 0.00 41 1013.7
20260502205216 12 246 4.8 4.8 0.00 0.00 0.00 41 1013.8
20260502204713 12 194 3.2 3.2 0.00 0.00 0.00 41 1013.7
20260502204211 12 283 3.2 3.2 0.00 0.00 0.00 42 1013.6
20260502203708 12 290 3.2 3.2 0.00 0.00 0.00 43 1013.8
20260502203206 11 270 6.4 9.7 0.00 0.00 0.00 45 1013.8
20260502202700 11 211 3.2 3.2 0.00 0.00 0.00 43 1013.7
20260502202159 12 265 1.6 3.2 0.00 0.00 0.00 49 1013.7
20260502201655 11 131 1.6 3.2 0.00 0.00 0.00 45 1013.8
20260502201152 12 291 3.2 4.8 0.00 0.00 0.00 45 1013.8
20260502200647 12 272 1.6 1.6 0.00 0.00 0.00 44 1013.7
20260502200144 12 280 3.2 3.2 0.00 0.00 0.00 44 1013.7
20260502195643 12 212 3.2 4.8 0.00 0.00 0.00 43 1013.8
20260502195138 12 267 3.2 4.8 0.00 0.00 0.00 43 1014.0
20260502194635 12 294 1.6 3.2 0.00 0.00 0.00 45 1013.8
20260502194132 12 286 1.6 3.2 0.00 0.00 0.00 42 1013.9
20260502193629 12 225 1.6 3.2 0.00 0.00 0.00 45 1013.8
20260502193126 12 259 6.4 8.0 0.00 0.00 0.00 46 1013.9
20260502192621 11 167 3.2 4.8 0.00 0.00 0.00 46 1014.0
20260502192119 11 261 1.6 1.6 0.00 0.00 0.00 46 1014.2
20260502191615 11 266 4.8 8.0 0.00 0.00 0.00 45 1014.3
20260502191113 12 262 4.8 8.0 0.00 0.00 0.00 46 1014.0